EDT,Max TemperatureF,Mean TemperatureF,Min TemperatureF,Max Dew PointF,MeanDew PointF,Min DewpointF,Max Humidity, Mean Humidity, Min Humidity, Max Sea Level PressureIn, Mean Sea Level PressureIn, Min Sea Level PressureIn, Max VisibilityMiles, Mean VisibilityMiles, Min VisibilityMiles, Max Wind SpeedMPH, Mean Wind SpeedMPH, Max Gust SpeedMPH,PrecipitationIn, CloudCover, Events, WindDirDegrees
2012-9-1,91,85,78,74,72,70,85,69,52,30.05,30.02,29.98,10,9,6,13,6,21,0.00,0,,295
2012-9-2,82,77,72,73,69,66,84,75,65,30.05,30.02,29.99,10,9,2,18,6,26,0.31,5,Rain-Thunderstorm,117
2012-9-3,84,81,77,75,73,71,91,83,74,30.07,30.04,30.01,10,7,3,13,6,17,T,5,Rain-Thunderstorm,158
2012-9-4,86,79,72,76,72,65,87,79,70,30.04,30.00,29.92,10,6,0,18,10,25,1.96,5,Rain-Thunderstorm,215
2012-9-5,88,82,75,73,71,68,85,70,55,29.92,29.87,29.81,10,10,7,22,10,30,T,4,Rain-Thunderstorm,240
2012-9-6,80,74,67,73,67,62,87,80,73,29.98,29.91,29.85,10,5,0,24,7,29,2.45,7,Rain-Thunderstorm,75
2012-9-7,83,74,64,71,66,60,87,73,58,29.97,29.93,29.86,10,10,8,12,5,15,0.00,0,,177
2012-9-8,85,76,66,74,70,61,88,79,70,29.89,29.79,29.67,10,9,5,23,13,33,0.13,5,Rain,211
2012-9-9,79,71,62,61,58,52,81,61,40,29.91,29.85,29.80,10,10,10,15,6,21,0.02,4,Rain,347
2012-9-10,77,68,59,54,50,47,72,54,36,30.16,30.02,29.91,10,10,10,16,9,23,0.00,0,,348
2012-9-11,74,64,53,52,48,45,80,59,38,30.31,30.25,30.16,10,10,10,15,6,21,0.00,0,,37
2012-9-12,76,65,53,56,52,48,83,61,38,30.38,30.34,30.31,10,10,10,9,4,13,0.00,0,,122
2012-9-13,79,67,55,62,58,51,86,70,54,30.38,30.33,30.29,10,10,10,12,5,15,0.00,1,,61
2012-9-14,80,70,59,63,59,54,84,68,52,30.28,30.21,30.13,10,10,10,12,4,15,0.00,2,,191
2012-9-15,78,70,61,62,55,46,81,57,33,30.16,30.12,30.08,10,10,10,16,8,23,0.00,0,,332
2012-9-16,75,65,54,55,51,46,83,62,41,30.17,30.13,30.09,10,10,10,9,3,13,0.00,0,,304
2012-9-17,78,69,59,66,58,53,79,65,50,30.13,30.09,30.02,10,10,10,14,6,19,0.00,5,,190
2012-9-18,83,77,70,69,67,64,84,74,63,30.00,29.83,29.73,10,8,1,32,17,43,0.74,6,Rain,212
2012-9-19,75,67,59,65,55,50,84,64,43,30.15,30.01,29.82,10,10,10,14,8,21,T,5,,11
2012-9-20,75,66,56,55,51,46,80,63,46,30.16,30.12,30.08,10,10,10,12,7,20,0.00,2,,35
2012-9-21,77,67,56,60,56,49,81,61,41,30.09,30.05,30.01,10,10,10,12,6,14,0.00,2,,97
2012-9-22,83,75,67,66,63,60,81,68,54,29.99,29.92,29.85,10,10,10,24,13,29,0.00,0,,216
2012-9-23,75,66,56,64,46,41,73,53,33,30.14,30.06,29.90,10,10,10,16,8,23,0.01,3,Rain,358
2012-9-24,73,61,49,45,41,38,71,51,31,30.21,30.17,30.13,10,10,10,14,5,19,0.00,1,,336
2012-9-25,74,63,51,55,48,42,71,56,41,30.25,30.21,30.16,10,10,10,20,11,23,0.00,1,,215
2012-9-26,83,74,65,63,59,55,78,61,43,30.19,30.15,30.12,10,10,10,21,11,25,0.00,1,,234
2012-9-27,81,74,66,64,62,59,84,69,54,30.19,30.13,30.11,10,10,10,12,6,15,0.00,2,,214
2012-9-28,80,73,65,66,64,60,87,73,58,30.10,30.03,29.95,10,8,1,16,7,24,0.14,4,Rain-Thunderstorm,228
2012-9-29,67,63,59,62,54,49,78,67,56,29.99,29.95,29.91,10,10,10,12,4,14,T,6,Rain,332
2012-9-30,74,64,54,54,49,45,83,59,35,29.91,29.87,29.83,10,10,10,15,5,29,0.00,2,,274